Reflectivity
-20 -20 -20 -20 -20 -20 -20 -20 -20 -20 -20 -20 -20 -20 -20 -20 -20 -20 -20 -20 -20 -20 -20 -20 -20 -20 -20 -20 -20 -20 -20 -20
-20 -20 -20 -20 -20 -20 -20 -20 -20 -20 -20 -20 -20 -20 -20 -20 -20 -20 -20 -20 -20 -20 -20 -20 -20 -20 -20 -20 -20 -20 -20 -20
-20 -20 -20 -20 -20 -20 -20 -20 -20 -20 -20 -20 -20 -20 -20 -20 -20 -20 -20 -20 -20 -20 -20 -20 -20 -20 -20 -20 -20 -20 -20 -20
-20 -20 -20 -20 -20 -20 -20 -20 -20 -20 -20 -20 -20 -20 -20 -20 -20 -20 -20 -20 -20 -20 -20 -20 -20 -20 -20 -20 -20 -20 -20 -20
-20 -20 -20 -20 -20 -20 -20 -20 -20 -20 -20 -20 -20 -20 -20 -20 -20 -20 -20 -20 -20 -20 -20 -20 -20 -20 -20 -20 -20 -20 -20 -20
-20 -20 -20 -20 -20 -20 -20 -20 -20 -20 -20 -20 -20 -20 -20 -20 -20 -20 -20 -20 -20 -20 -20 -20 -20 -20 -20 -20 -20 -20 -20 -20
-20 -20 -20 -20 -20 -20 -20 -20 -20 -20 -20 -20 -20 -20 -20 -20 -20 -20 -20 -20 -20 -20 -20 -20 -20 -20 -20 -20 -20 -20 -20 -20
-20 -20 -20 -20 -20 -20 -20 -20 -20 -20 -20 -20 -20 -20 -20 -20 -20 -20 -20 -20 -20 -20 -20 -20 -20 -20 -20 -20 -20 -20 -20 -20
-20 -20 -20 -20 -20 -20 -20 -20 -20 -20 -20 -20 -20 -20 -20 -20 -20 -20 -20 -20 -20 -20 -20 -20 -20 -20 -20 -20 -20 -20 -20 -20
-20 -20 -20 -20 -20 -20 -20 -20 -20 -20 -20 -19 -20 -20 -20 -20 -20 -20 -20 -20 -20 -20 -20 -20 -20 -20 -20 -20 -20 -20 -20 -20
-20 -20 -20 -20 -20 -20 -20 -20 -20 -20 -8 -20 -20 -20 -20 -20 -20 -20 -20 -20 -20 -20 -20 -20 -20 -20 -20 -20 -20 -20 -20 -20
-20 -20 -20 -20 -20 -20 -20 -20 -20 -20 -20 -20 -20 -20 -20 -20 -20 -20 -20 -20 -20 -20 -20 -20 -20 -20 -20 -20 -20 -20 -20 -20
-20 -20 -20 -20 -20 -20 -20 -20 -20 -20 -20 -20 -20 -20 -20 -20 -20 -20 -20 -20 -20 -20 -20 -20 -20 -20 -20 -20 -20 -20 -20 -20
-19 -20 -20 -20 -20 -20 -20 -20 -20 -20 -20 -20 -20 -20 -20 -20 -20 -20 -20 -20 -20 -20 -20 -20 -20 -20 -20 -20 -20 -20 -20 -20
-20 -20 -20 -20 -20 -20 -20 -20 -20 -20 -20 -20 -20 -20 -20 -20 -20 -20 -20 -20 -20 -20 -20 -20 -20 -20 -20 -20 -20 -20 -20 -20
-20 -20 -20 -20 -20 -20 -20 -20 -20 -20 -20 -20 -20 -20 -20 -20 -20 -20 -20 -20 -20 -20 -20 -20 -20 -20 -20 -20 -20 -20 -20 -20
-20 -20 -20 -20 -20 -20 -20 -20 -20 -20 -20 -20 -20 -20 -20 -20 -20 -20 -20 -20 -20 -20 -20 -20 -20 -20 -20 -20 -20 -20 -20 -20
-20 -20 -20 -20 -20 -20 -20 -20 -20 -20 -20 -20 -20 -20 -20 -20 -20 -20 -20 -20 -20 -20 -20 -20 -20 -20 -20 -20 -20 -20 -20 -20
-20 -20 -20 -20 -20 -20 -20 -20 -20 -20 -20 -20 -20 -20 -20 -20 -20 -20 -20 -20 -20 -20 -20 -20 -20 -20 -20 -20 -20 -20 -20 -20
Wind_Speed
13 12 10 11 12 11 10 9 10 8 6 5 5 4 3 3 4 5 4 5 7 7 7 8 9 8 9 10 11 11 10 10
14 12 12 12 13 12 12 11 11 9 7 6 6 5 4 4 5 4 5 6 7 8 7 8 9 8 9 10 9 12 10 10
15 15 14 13 14 13 13 12 12 10 7 6 4 4 3 4 4 5 6 6 7 7 7 7 8 7 8 9 10 9 9 9
17 17 16 15 14 15 14 13 13 11 9 5 4 4 4 5 5 5 5 5 6 6 7 6 7 7 7 9 9 11 9 9
17 18 18 16 15 14 14 13 13 12 11 9 9 7 6 4 4 5 5 4 5 5 5 6 6 6 7 8 8 8 9 9
18 19 18 18 16 14 13 14 13 12 11 11 9 9 4 4 4 5 3 3 3 3 4 5 6 6 7 8 8 9 7 8
17 17 18 17 14 14 14 14 14 13 12 12 9 7 5 5 5 4 3 2 3 2 4 4 5 6 7 7 8 9 9 8
14 16 17 17 17 16 13 15 14 14 12 11 9 8 7 6 5 6 3 4 3 4 4 5 6 6 7 8 9 8 8 7
11 15 16 16 17 17 16 16 15 14 12 11 9 8 6 6 5 2 4 3 1 3 5 6 7 8 8 8 8 7 8 8
3 9 13 16 17 18 17 15 15 13 12 10 8 7 6 4 3 3 2 2 2 1 5 7 8 9 9 9 8 10 8 8
5 2 8 13 15 15 16 15 14 11 10 8 6 6 5 4 3 2 3 4 4 6 7 8 10 10 11 10 9 10 10 10
8 6 5 4 8 12 14 12 11 10 8 7 7 6 5 4 1 2 3 5 6 7 9 10 11 12 12 12 13 14 14 13
8 8 7 6 1 3 8 8 8 10 7 7 7 6 5 4 2 3 4 6 7 9 11 12 13 14 14 15 16 16 16 16
8 8 8 7 7 6 8 8 9 9 8 8 7 6 5 4 5 5 6 7 9 11 13 14 15 15 16 17 18 17 17 18
8 9 10 10 10 11 11 12 10 9 9 8 7 7 6 6 6 6 8 10 11 12 13 14 14 15 16 15 16 17 18 18
10 11 12 13 14 13 13 12 10 10 9 9 8 7 6 7 8 9 9 10 11 13 14 14 14 14 9 12 14 16 18 20
13 14 15 15 14 13 12 12 11 10 10 9 8 8 7 8 8 9 10 11 12 12 14 14 15 12 12 13 13 15 18 18
14 15 14 13 13 12 12 11 10 10 9 9 9 9 8 9 10 10 11 13 13 14 14 14 15 15 11 10 11 14 16 16
14 13 13 13 13 12 11 11 10 9 9 8 9 9 9 10 11 12 13 12 13 13 13 14 14 12 12 11 14 16 15 16
Wind_Direction
184 181 178 179 160 173 174 170 158 166 158 171 166 153 140 120 71 60 19 44 27 3 38 25 357 20 9 3 355 350 337 356
183 185 180 187 161 180 184 182 171 180 183 189 172 172 135 113 83 71 57 36 35 23 18 19 3 13 10 359 356 347 348 354
186 184 190 195 173 193 186 188 181 194 194 204 193 158 160 98 89 80 65 54 35 47 17 19 12 355 14 2 5 347 346 342
192 189 197 193 190 195 193 191 182 195 205 186 199 162 157 177 153 133 77 65 54 40 29 21 7 357 5 356 3 350 342 341
202 190 196 197 198 192 198 191 185 192 201 193 203 200 199 166 130 92 108 66 53 42 33 19 9 350 4 352 360 344 345 341
207 194 199 200 199 190 199 192 191 192 195 234 194 235 208 141 128 152 96 104 52 45 31 16 5 354 359 343 346 342 338 335
203 197 195 198 191 191 192 197 198 197 200 206 217 213 241 169 181 198 197 195 183 66 4 3 351 352 352 342 339 336 328 327
206 202 194 200 190 191 192 199 200 198 195 200 207 219 214 208 191 221 209 216 233 88 347 354 349 348 342 337 335 323 324 331
208 207 203 199 197 190 199 196 204 192 193 196 198 208 201 222 193 256 244 294 352 39 348 339 339 334 332 329 320 314 316 319
200 225 211 209 202 194 198 205 204 187 187 193 184 193 224 203 146 213 219 356 329 321 335 328 327 322 315 308 303 309 301 295
62 230 223 219 208 196 194 208 207 182 178 174 175 177 173 130 162 228 6 341 331 334 325 322 320 312 307 301 295 293 302 294
30 32 6 277 229 205 181 192 214 159 147 168 157 145 128 136 119 38 343 350 328 323 317 313 310 310 310 308 302 297 290 290
50 49 47 50 30 184 139 164 193 117 149 138 130 124 122 92 37 360 354 331 316 306 310 311 312 316 318 314 305 303 298 294
68 73 78 84 89 105 123 121 105 119 126 126 123 100 84 46 14 355 335 321 316 317 320 321 321 319 314 315 310 311 323 331
84 82 83 89 98 104 107 104 117 121 117 102 87 68 42 26 7 346 338 333 328 327 326 325 323 324 320 342 350 336 328 323
94 95 96 97 97 100 103 102 103 102 93 84 69 58 44 23 7 350 341 333 330 330 330 327 326 321 11 10 349 333 326 317
103 103 105 102 100 100 99 92 82 82 77 67 50 37 22 14 351 340 341 342 334 332 330 328 330 328 53 38 5 334 324 314
110 104 101 102 103 99 93 90 82 74 66 54 36 19 8 2 350 344 346 337 334 334 331 331 331 324 48 24 14 333 310 308
110 107 105 99 96 94 90 82 73 63 52 39 31 13 2 356 346 349 342 339 335 333 331 333 329 328 13 37 4 319 318 322